Flag for Germany Weather past 2 weeks in Homberg (Efze), Hesse, Germany

Now
55 °F

Overcast.


Feels Like: 54 °F
Forecast: 42 / 58 °F
Wind: 5 mph from Northwest

Location: Fritzlar

Current Time: May 26, 2015 at 2:10:26 PM

Latest Report: May 26, 2015 at 1:00 PM


Visibility: 31 mi

Pressure: 30.09 "Hg

Humidity: 47%

Dew point: 35 °F

Location of Homberg (Efze)Location

Historic Weather in Homberg (Efze) — Graph

°F

Homberg (Efze) temperature yesterday

Maximum temperature yesterday: 61 °F (at 2:00 PM)
Minimum temperature yesterday: 46 °F (at 6:00 AM)
Average temperature yesterday: 54 °F

Past Weeks' High & Low Weather Summary

 TemperatureHumidityPressure
High80 °F (May 12, 4:00 PM)96% (May 12, 6:00 AM)30.36 "Hg (May 12, 6:00 AM)
Low38 °F (May 16, 5:00 AM)36% (May 22, 6:00 PM)29.65 "Hg (May 19, 3:00 AM)
Average54 °F67%30.06 "Hg
* Reported May 11 12:00 Noon — May 26 12:00 Noon, Homberg (Efze), Weather by CustomWeather, © 2015

Note: Actual official high and low records may vary slightly from our data, if they occured in-between our weather recording intervals... More about our weather records

Advertising

Homberg (Efze) weather history for previous 24 hours

 ConditionsComfort  
Time TempWeatherWind HumidityBarometerVisibility
12:00 PM
Tue, May 26
54 °FOvercast.3 mph59%30.09 "Hg25 mi
11:00 AM50 °FOvercast.3 mph72%30.09 "Hg25 mi
10:00 AM50 °FOvercast.3 mph72%30.08 "Hg22 mi
9:00 AM50 °FOvercast.3 mph72%30.07 "Hg19 mi
8:00 AM50 °FOvercast.2 mph75%30.06 "Hg12 mi
7:00 AM49 °FOvercast.2 mph80%30.04 "Hg12 mi
6:00 AM49 °FOvercast.3 mph80%30.03 "Hg12 mi
5:00 AM49 °FOvercast.5 mph82%30.01 "Hg12 mi
4:00 AM49 °FOvercast.3 mph78%30.00 "Hg12 mi
3:00 AM49 °FOvercast.3 mph85%29.99 "Hg12 mi
2:00 AM49 °FOvercast.3 mph88%29.99 "Hg12 mi
1:00 AM49 °FOvercast.3 mph87%29.98 "Hg12 mi
12:00 AM50 °FOvercast.3 mph87%29.98 "Hg12 mi
10:00 PM
Mon, May 25
50 °FPassing clouds.2 mph83%29.97 "Hg16 mi
9:00 PM53 °FPassing clouds.2 mph77%29.95 "Hg16 mi
8:00 PM57 °FScattered clouds.3 mph63%29.95 "Hg16 mi
7:00 PM56 °FPartly sunny.5 mph65%29.94 "Hg16 mi
6:00 PM56 °FOvercast.5 mph76%29.94 "Hg12 mi
5:00 PM56 °FOvercast.6 mph79%29.95 "Hg9 mi
4:00 PM58 °FLight rain. Overcast.3 mph75%29.93 "Hg9 mi
3:00 PM58 °FLight rain. Overcast.5 mph74%29.94 "Hg9 mi
2:00 PM61 °FOvercast.2 mph65%29.93 "Hg11 mi
Weather by CustomWeather, © 2015

See weather overviewHow to use our weather pages